User: anonymous   Login
Location: Waco, TX
(31.5481°N, 97.1672°W)
Time: 20:19:27
(UTC-06:00)
Language:

PRISM - Orbit

View from above orbital plane
View from above orbital plane
View from above satellite
View from above satellite

Ground track
Ground track

The orbit data is extracted from the following two-line orbital elements,

1 33493U 09002B   17343.89485142 +.00000218 +00000-0 +25108-4 0  9993
2 33493 098.1463 233.5354 0014162 220.3498 139.6680 14.95983851482046
Epoch (UTC): 09 December 2017 21:28:35
Eccentricity: 0.0014162
inclination: 98.1463°
perigee height: 569 km
apogee height: 589 km
right ascension of ascending node: 233.5354°
argument of perigee: 220.3498°
revolutions per day: 14.95983851
mean anomaly at epoch: 139.6680°
orbit number at epoch: 48204

The dashed part of the orbit path shows where the satellite is in the earth's shadow,  

DLR